TimeCDT,TemperatureF,Dew PointF,Humidity,Sea Level PressureIn,VisibilityMPH,Wind Direction,Wind SpeedMPH,Gust SpeedMPH,PrecipitationIn,Events,Conditions,WindDirDegrees,DateUTC
12:54 AM,44.1,42.1,93,29.95,6.0,Calm,Calm,-,N/A,,Clear,0,2012-10-01 05:54:00
1:54 AM,42.1,41.0,96,29.93,3.0,Calm,Calm,-,N/A,,Clear,0,2012-10-01 06:54:00
2:00 AM,42.8,41.0,93,29.91,1.8,Calm,Calm,-,N/A,,Clear,0,2012-10-01 07:00:00
2:15 AM,41.0,39.2,93,29.91,3.0,Calm,Calm,-,N/A,,Clear,0,2012-10-01 07:15:00
2:54 AM,41.0,39.0,93,29.92,9.0,Calm,Calm,-,N/A,,Clear,0,2012-10-01 07:54:00
3:43 AM,39.2,37.4,93,29.88,1.5,Calm,Calm,-,N/A,,Clear,0,2012-10-01 08:43:00
3:51 AM,37.4,37.4,100,29.88,0.5,Calm,Calm,-,N/A,Fog,Fog,0,2012-10-01 08:51:00
4:01 AM,39.2,37.4,93,29.88,1.2,Calm,Calm,-,N/A,,Clear,0,2012-10-01 09:01:00
4:06 AM,37.4,37.4,100,29.88,0.8,Calm,Calm,-,N/A,,Mist,0,2012-10-01 09:06:00
4:17 AM,37.4,37.4,100,29.88,1.2,Calm,Calm,-,N/A,,Partly Cloudy,0,2012-10-01 09:17:00
4:19 AM,37.4,37.4,100,29.88,3.0,Calm,Calm,-,N/A,,Partly Cloudy,0,2012-10-01 09:19:00
4:54 AM,37.9,37.0,97,29.90,8.0,Calm,Calm,-,N/A,,Clear,0,2012-10-01 09:54:00
5:10 AM,35.6,35.6,100,29.88,1.8,Calm,Calm,-,N/A,,Partly Cloudy,0,2012-10-01 10:10:00
5:16 AM,37.4,35.6,93,29.88,0.8,Calm,Calm,-,N/A,,Mist,0,2012-10-01 10:16:00
5:26 AM,39.2,37.4,93,29.88,1.2,Calm,Calm,-,N/A,,Partly Cloudy,0,2012-10-01 10:26:00
5:34 AM,35.6,35.6,100,29.88,3.0,Calm,Calm,-,N/A,,Partly Cloudy,0,2012-10-01 10:34:00
5:39 AM,35.6,35.6,100,29.88,1.5,Calm,Calm,-,N/A,,Clear,0,2012-10-01 10:39:00
5:50 AM,37.4,35.6,93,29.88,3.0,Calm,Calm,-,N/A,,Clear,0,2012-10-01 10:50:00
6:23 AM,35.6,35.6,100,29.87,1.8,Calm,Calm,-,N/A,,Clear,0,2012-10-01 11:23:00
6:37 AM,35.6,35.6,100,29.87,3.0,Calm,Calm,-,N/A,,Clear,0,2012-10-01 11:37:00
6:54 AM,36.0,35.1,97,29.89,10.0,Calm,Calm,-,N/A,,Clear,0,2012-10-01 11:54:00
8:54 AM,50.0,44.1,80,29.90,10.0,Calm,Calm,-,N/A,,Clear,0,2012-10-01 13:54:00
10:54 AM,62.1,45.0,53,29.87,10.0,South,4.6,-,N/A,,Clear,180,2012-10-01 15:54:00
11:54 AM,68.0,43.0,40,29.86,10.0,West,6.9,-,N/A,,Clear,260,2012-10-01 16:54:00
1:54 PM,72.0,42.1,34,29.81,10.0,Calm,Calm,-,N/A,,Clear,0,2012-10-01 18:54:00
2:54 PM,72.0,41.0,33,29.80,10.0,Variable,5.8,-,N/A,,Clear,0,2012-10-01 19:54:00
3:54 PM,72.0,41.0,33,29.80,10.0,WSW,4.6,-,N/A,,Clear,240,2012-10-01 20:54:00
4:54 PM,70.0,43.0,38,29.81,10.0,WSW,5.8,-,N/A,,Clear,250,2012-10-01 21:54:00
5:54 PM,68.0,44.1,42,29.81,10.0,Calm,Calm,-,N/A,,Clear,0,2012-10-01 22:54:00
6:54 PM,61.0,46.0,58,29.84,10.0,NNW,11.5,16.1,N/A,,Clear,330,2012-10-01 23:54:00
7:54 PM,61.0,48.0,62,29.87,10.0,NNW,8.1,-,N/A,,Clear,340,2012-10-02 00:54:00
8:54 PM,57.0,48.0,72,29.88,10.0,NNW,5.8,-,N/A,,Clear,340,2012-10-02 01:54:00
9:54 PM,54.0,48.0,80,29.88,10.0,Calm,Calm,-,N/A,,Clear,0,2012-10-02 02:54:00
10:54 PM,50.0,45.0,83,29.89,10.0,Calm,Calm,-,N/A,,Clear,0,2012-10-02 03:54:00
11:54 PM,51.1,48.0,89,29.88,10.0,Calm,Calm,-,N/A,,Overcast,0,2012-10-02 04:54:00